Probability
0 0 0 0 0 0 0 0 0 0 0 0 0 0 0 0 0 0 0 1 2 2 1 1 3 5 4 2 1 2 5 5 6 7 6 3 1 1 1 1 0 2 3
0 0 0 0 0 0 0 0 0 0 0 0 0 0 0 0 0 0 0 0 1 1 0 0 2 4 5 3 1 2 5 6 6 6 6 4 2 1 1 1 1 3 4
0 0 0 0 0 0 0 0 0 0 0 0 0 0 0 0 0 0 0 0 0 0 0 0 1 3 5 4 2 1 3 5 6 6 6 5 3 1 2 2 3 4 5
0 0 0 0 0 0 0 0 0 0 0 0 0 0 0 0 0 0 0 0 0 0 0 0 1 2 4 5 3 2 2 4 6 7 6 5 4 2 1 2 4 4 4
0 0 0 0 0 0 0 0 0 0 0 0 0 0 0 0 0 0 0 0 0 0 0 0 1 2 3 4 4 3 2 3 5 7 7 6 5 2 0 1 1 2 2
0 0 0 0 0 0 0 0 0 0 0 0 0 0 0 0 0 0 0 0 0 0 0 0 1 2 3 3 4 5 4 3 4 6 7 6 5 2 0 0 0 0 1
0 0 0 0 0 0 0 0 0 0 0 0 0 0 0 0 0 0 0 0 0 0 0 0 2 3 3 2 3 5 6 5 4 4 5 6 5 3 1 1 0 0 0
0 0 0 0 0 0 0 0 0 0 0 0 0 0 0 0 0 0 0 0 0 0 0 0 1 2 2 1 1 3 5 6 6 4 3 3 4 4 2 1 1 0 0
0 0 0 0 0 0 0 0 0 0 0 0 0 0 0 0 0 0 0 0 0 0 0 0 1 1 1 0 0 1 3 5 6 5 3 1 2 2 1 1 1 1 1
0 0 0 0 0 0 0 0 0 0 0 0 0 0 0 0 0 0 0 0 0 0 0 1 2 2 2 1 0 0 1 3 4 4 3 1 0 0 0 0 0 0 0
0 0 0 0 0 0 0 0 0 0 0 0 0 0 0 0 0 0 0 0 0 0 0 1 2 2 2 1 0 0 0 1 2 2 2 1 0 0 0 0 0 0 0
0 0 0 0 0 0 0 0 0 0 0 0 0 0 0 0 0 0 0 0 0 0 0 0 1 1 1 0 0 0 0 0 1 1 1 1 0 0 0 0 0 0 0
0 0 0 0 0 0 0 0 0 0 0 0 0 0 0 0 0 0 0 0 0 0 0 0 0 0 0 0 0 0 0 0 0 0 0 0 0 0 0 0 0 0 0
0 0 0 0 0 0 0 0 0 0 0 0 0 0 0 0 0 0 0 0 0 0 0 0 0 0 0 0 0 0 0 0 0 0 0 0 0 0 0 0 0 0 0
0 0 0 0 0 0 0 0 0 0 0 0 0 0 0 0 0 0 0 0 0 0 0 0 0 0 0 0 0 0 0 0 0 0 0 0 0 0 0 0 0 0 0
0 0 0 0 0 0 0 0 0 0 0 0 0 0 0 0 0 0 0 0 0 0 0 0 0 0 0 0 0 0 0 0 0 0 0 0 0 0 0 0 0 0 0
0 0 0 0 0 0 0 0 0 0 0 0 0 0 0 0 0 0 0 0 0 0 0 0 0 0 0 0 0 0 0 0 0 0 0 0 0 0 0 0 0 0 0
0 0 0 0 0 0 0 0 0 0 0 0 0 0 0 0 0 0 0 0 0 0 0 0 0 0 0 0 0 0 0 0 0 0 0 0 0 0 0 0 0 0 0
0 0 0 0 0 0 0 0 0 0 0 0 0 0 0 0 0 0 0 0 0 0 0 0 0 0 0 0 0 0 0 0 0 0 0 0 0 0 0 0 0 0 0
0 0 0 0 0 0 0 0 0 0 0 0 0 0 0 0 0 0 0 0 0 0 0 0 0 0 0 0 0 0 0 0 0 0 0 0 0 0 0 0 0 0 0
0 0 0 0 0 0 0 0 0 0 0 0 0 0 0 0 0 0 0 0 0 0 0 0 0 0 0 0 0 0 0 0 0 0 0 0 0 0 0 0 0 0 0
0 0 0 0 0 0 0 0 0 0 0 0 0 0 0 0 0 0 0 0 0 0 0 0 0 0 0 0 0 0 0 0 0 0 0 0 0 0 0 0 0 0 0
0 0 0 0 0 0 0 0 0 0 0 0 0 0 0 0 0 0 0 0 0 0 0 0 0 0 0 0 0 0 0 0 0 0 0 0 0 0 0 0 0 0 0
0 0 0 0 0 0 0 0 0 0 0 0 0 0 0 0 0 0 0 0 0 0 0 0 0 0 0 0 0 0 0 0 0 0 0 0 0 0 0 0 0 0 0
0 0 0 0 0 0 0 0 0 0 0 0 0 0 0 0 0 0 0 0 0 0 0 0 0 0 0 0 0 0 0 0 0 0 0 0 0 0 0 0 0 0 0
0 0 0 0 0 0 0 0 0 0 0 0 0 0 0 0 0 0 0 0 0 0 0 0 0 0 0 0 0 0 0 0 0 0 0 0 0 0 0 0 0 0 0
Wind_Speed
3 2 1 0 1 2 3 4 5 6 5 4 4 3 3 4 3 3 5 5 5 6 5 4 5 4 4 5 6 6 7 6 5 6 6 7 9 10 8 8 9 9 9
4 3 2 1 1 2 3 4 4 5 5 4 4 3 4 4 4 4 4 5 6 6 5 5 4 4 4 5 6 5 5 5 4 4 5 5 6 6 7 7 7 8 7
5 4 3 2 1 1 3 3 4 4 4 5 3 3 3 3 2 4 4 5 6 5 5 5 5 4 4 4 5 6 6 6 5 5 4 5 5 4 5 7 7 6 6
6 5 4 3 2 2 2 3 3 4 4 4 3 4 3 4 4 4 4 5 5 5 5 6 5 5 4 5 5 5 6 6 5 5 5 7 7 6 5 5 5 5 6
6 5 4 3 3 2 2 2 3 3 3 3 4 4 3 3 4 4 5 5 5 5 6 6 5 5 5 5 5 5 6 5 6 5 5 6 6 7 7 7 5 4 4
6 5 4 3 3 2 2 2 3 3 3 3 3 4 4 5 5 5 5 4 4 4 6 6 5 5 5 5 6 5 6 5 6 5 5 5 5 5 6 8 7 6 5
6 5 5 4 4 3 3 2 3 3 3 3 3 3 4 5 5 5 4 5 4 4 6 6 6 5 5 5 5 5 5 5 5 5 4 4 5 5 6 7 7 7 6
5 5 5 5 4 4 4 3 3 3 3 3 3 3 4 3 3 4 4 4 4 4 6 6 6 6 6 5 5 4 4 4 5 5 5 4 4 4 5 6 6 7 6
5 5 5 5 5 5 4 4 4 4 3 3 3 3 3 3 3 4 4 3 4 4 6 5 5 5 5 5 5 4 4 4 4 4 5 4 4 4 4 5 5 6 7
5 5 5 5 5 5 4 4 4 4 4 3 3 2 3 3 3 3 3 3 4 4 5 5 5 5 5 5 4 4 4 4 4 3 4 4 3 3 4 4 4 4 5
5 6 5 5 5 5 5 5 5 4 4 3 3 3 2 2 3 2 3 3 4 4 4 5 5 5 5 5 4 4 4 4 4 4 4 4 4 3 3 3 3 3 4
6 6 6 5 5 5 5 5 5 5 4 4 3 3 2 2 2 2 2 3 3 3 4 4 4 4 5 5 5 4 4 4 4 4 4 4 4 4 4 3 3 3 4
6 6 6 6 6 6 6 6 5 5 4 4 4 3 3 3 2 2 2 2 2 2 3 3 3 4 4 4 5 4 4 4 4 5 5 5 5 5 4 4 4 3 4
7 7 7 7 7 6 6 6 6 5 5 4 4 4 4 3 3 2 2 1 1 2 2 2 3 3 3 4 4 4 4 4 4 4 5 5 5 5 5 4 5 4 4
8 8 7 7 6 6 6 6 6 5 5 5 5 5 4 3 3 2 1 1 1 1 1 2 2 3 3 3 4 3 3 4 4 4 4 5 6 7 6 4 5 5 4
9 8 8 8 7 7 7 6 6 6 6 6 6 5 4 4 3 3 2 1 1 0 1 1 2 2 2 5 5 4 3 3 3 4 4 4 5 6 6 6 6 7 5
9 9 8 8 8 7 7 7 6 6 6 7 6 5 5 5 4 3 3 2 2 1 1 1 1 2 3 5 5 4 3 3 3 4 4 4 4 6 5 4 5 5 6
9 8 8 7 7 6 6 6 5 6 6 6 6 6 6 5 5 4 4 3 2 2 2 1 1 2 2 4 4 3 2 2 3 4 4 5 5 5 6 5 5 5 5
8 7 7 7 6 6 5 5 6 6 6 7 7 7 7 6 6 6 5 4 3 3 2 2 1 2 2 3 4 4 2 2 3 3 4 5 5 6 7 5 5 5 5
6 6 6 6 6 5 5 6 6 7 8 7 7 6 6 7 7 6 5 4 4 3 2 2 2 2 2 2 4 4 2 3 3 3 3 5 7 8 8 6 5 6 6
7 6 5 5 5 4 5 7 7 8 7 5 5 6 6 7 6 5 5 5 4 3 3 3 2 2 2 2 3 4 2 3 3 3 3 3 7 9 9 7 5 6 8
7 6 5 5 4 4 6 7 8 6 4 5 6 6 6 6 5 6 5 5 5 4 4 3 3 2 2 2 2 3 3 4 3 3 3 4 8 9 8 6 6 8 7
7 6 6 6 5 5 6 8 6 4 5 5 6 6 6 6 6 6 6 5 5 4 3 3 3 2 2 2 3 3 4 4 3 3 5 6 7 7 5 5 7 6 4
7 6 6 7 6 5 6 7 5 4 5 6 6 5 6 6 6 5 5 5 5 5 4 4 3 2 2 2 2 2 3 3 3 3 4 5 5 4 4 4 4 3 4
7 6 6 7 7 6 6 6 5 6 6 6 6 6 6 6 6 5 5 5 5 5 4 4 3 3 3 3 3 3 2 2 3 4 3 3 3 3 3 3 3 3 4
7 6 7 8 7 6 6 5 5 6 7 6 6 5 5 5 5 5 4 5 5 6 8 6 4 4 4 4 5 5 5 5 4 4 3 3 3 3 3 4 4 4 4
Wind_Direction
192 176 179 156 10 14 7 6 2 2 356 350 343 338 341 338 341 346 344 341 336 332 321 312 307 301 290 290 289 280 272 267 268 268 267 260 255 252 250 250 252 250 248
205 199 205 200 325 357 357 354 355 356 355 347 334 317 316 317 329 332 340 343 340 337 327 320 311 308 299 295 294 290 285 280 268 269 278 272 258 245 253 253 253 255 256
222 211 214 225 255 321 342 340 345 344 346 340 328 318 309 302 316 335 338 341 338 337 333 323 313 307 300 296 296 290 282 277 269 258 262 271 269 291 255 250 251 258 263
224 223 225 234 248 284 314 323 331 336 339 335 327 325 322 321 325 325 323 328 335 340 338 330 323 314 304 295 290 285 280 277 273 268 259 264 280 277 279 264 262 268 270
221 224 230 239 247 264 291 310 321 326 332 331 324 314 310 309 311 314 320 329 333 337 340 336 329 323 314 307 298 291 285 277 273 270 268 264 265 262 268 276 276 276 275
221 226 228 233 238 246 264 293 306 315 322 319 316 313 309 307 308 315 323 327 327 329 340 334 328 323 317 313 306 296 291 285 279 275 270 268 265 263 263 269 276 275 273
220 222 224 228 235 241 250 266 283 297 310 308 309 310 308 304 303 312 317 321 321 325 334 332 327 323 320 317 312 305 299 295 289 282 276 270 267 271 268 269 276 275 273
219 224 228 231 236 241 244 253 268 281 292 295 301 304 307 302 303 308 309 311 313 320 325 326 325 323 323 320 315 309 309 307 300 296 291 282 280 280 275 273 276 276 271
223 228 229 234 238 241 241 246 255 265 272 281 287 293 301 301 303 309 308 307 310 314 320 322 325 326 325 323 318 312 314 312 308 306 305 298 297 296 290 285 280 276 275
230 232 233 234 237 240 240 239 246 256 264 270 274 283 291 295 298 302 310 311 313 315 318 326 331 333 334 332 327 322 323 325 328 321 318 316 315 312 312 309 300 287 277
241 241 241 237 237 237 235 234 237 242 247 253 258 263 277 286 288 293 304 309 312 317 322 328 333 339 342 342 340 339 336 336 338 335 333 332 326 320 323 323 320 312 296
251 250 246 240 236 236 234 233 232 234 235 239 247 254 263 270 273 283 298 302 308 319 325 327 335 343 345 345 345 345 345 343 342 341 340 335 333 335 331 327 322 313 309
256 251 245 241 239 238 235 233 231 231 228 227 233 240 244 249 260 272 281 295 305 317 326 331 338 344 349 349 350 347 349 352 350 349 349 346 343 348 345 337 326 320 317
259 254 248 244 241 239 236 234 232 226 222 221 227 233 237 239 245 257 266 278 295 309 328 338 343 345 349 351 353 350 353 358 3 3 359 357 355 352 344 339 334 327 319
260 255 253 250 244 238 235 232 230 220 214 217 223 229 230 229 230 231 232 242 271 305 327 336 344 350 352 357 351 347 352 0 3 4 3 7 4 358 352 346 338 333 324
266 261 257 255 248 241 236 228 225 216 211 217 221 220 219 216 217 221 220 214 223 281 317 335 349 0 8 5 2 351 352 358 357 355 352 352 352 356 358 4 360 350 335
273 268 260 253 249 242 233 229 222 209 209 216 217 212 212 213 210 209 214 218 219 223 239 287 330 350 9 1 7 8 345 351 350 343 339 339 344 340 339 346 348 353 353
275 269 262 256 252 245 233 228 216 207 209 215 215 210 209 211 206 205 211 218 219 224 235 260 300 317 353 357 359 349 334 348 351 347 342 337 339 348 337 329 332 336 341
281 277 270 263 255 243 230 219 214 211 213 217 216 210 207 207 204 204 206 206 210 217 223 238 264 284 315 350 347 332 328 334 344 346 346 340 339 347 338 331 326 324 327
286 281 274 263 253 242 223 217 218 215 221 221 216 208 205 206 207 205 201 198 205 214 214 225 245 267 294 340 337 324 315 321 330 336 340 353 350 346 343 337 331 328 331
294 285 272 260 253 236 218 223 224 226 226 218 208 204 203 206 206 200 197 194 197 201 208 220 230 248 279 308 327 325 313 316 318 322 328 343 346 343 344 340 337 334 327
290 280 268 263 255 229 220 227 231 231 217 206 205 205 204 199 196 196 193 194 195 201 207 216 227 231 248 279 299 310 312 312 303 308 318 329 335 337 340 342 344 337 330
283 275 264 264 253 230 226 235 236 217 204 204 207 205 200 197 194 196 194 192 196 206 210 215 224 228 237 249 272 286 298 304 298 302 314 319 327 329 334 349 342 335 331
275 271 262 258 255 240 235 241 234 208 204 208 207 201 197 196 195 197 198 199 200 205 210 215 222 226 234 246 254 262 272 279 284 292 300 306 314 316 320 326 332 334 334
268 262 255 257 259 249 240 235 220 205 206 208 204 199 198 196 194 198 202 207 210 212 212 215 218 223 234 243 264 274 273 279 288 296 291 294 303 309 316 319 323 325 322
267 260 256 256 259 250 242 229 213 205 204 204 203 199 194 193 193 191 195 211 220 219 225 229 229 234 245 258 256 262 270 277 281 281 281 287 294 300 308 312 316 318 319